This is the latest recevied weather packets stored in our database for station/object SQ9NFI-4. If no packets are shown the sender has not sent any weather packets the latest 10 day(s).
| Time | Temp. | Humidity | Pressure | Rain* | Wind** | Luminosity | Snow |
|---|---|---|---|---|---|---|---|
| 1777954305 | 8.33° C | 87% | 1012.2 hPa | 0 mm | - | 34 W/m² | - |
| 1777954005 | 7.78° C | 89% | 1012.2 hPa | 0 mm | - | 29 W/m² | - |
| 1777953705 | 7.22° C | 91% | 1012.2 hPa | 0 mm | - | 25 W/m² | - |
| 1777953405 | 6.67° C | 91% | 1012.2 hPa | 0 mm | - | 21 W/m² | - |
| 1777953105 | 6.67° C | 92% | 1012.2 hPa | 0 mm | - | 18 W/m² | - |
| 1777952805 | 6.67° C | 93% | 1012.2 hPa | 0 mm | - | 15 W/m² | - |
| 1777952505 | 6.67° C | 93% | 1012.2 hPa | 0 mm | - | 12 W/m² | - |
| 1777952205 | 6.11° C | 93% | 1012.2 hPa | 0 mm | - | 11 W/m² | - |
| 1777951905 | 6.67° C | 93% | 1012.2 hPa | 0 mm | - | 8 W/m² | - |
| 1777951605 | 6.67° C | 92% | 1012.2 hPa | 0 mm | - | 6 W/m² | - |
| 1777951305 | 6.67° C | 92% | 1012.2 hPa | 0 mm | - | 5 W/m² | - |
| 1777951005 | 6.67° C | 92% | 1012.2 hPa | 0 mm | - | 3 W/m² | - |
| 1777950705 | 6.67° C | 92% | 1012.2 hPa | 0 mm | - | 2 W/m² | - |
| 1777950405 | 6.67° C | 92% | 1012.2 hPa | 0 mm | - | 1 W/m² | - |
| 1777950105 | 6.67° C | 91% | 1012.5 hPa | 0 mm | - | 1 W/m² | - |
| 1777949805 | 6.67° C | 90% | 1012.5 hPa | 0 mm | - | 0 W/m² | - |
| 1777949505 | 6.67° C | 90% | 1012.5 hPa | 0 mm | - | 0 W/m² | - |
| 1777949205 | 6.67° C | 92% | 1012.5 hPa | 0 mm | - | 0 W/m² | - |
| 1777948905 | 6.67° C | 93% | 1012.5 hPa | 0 mm | - | 0 W/m² | - |
| 1777948605 | 6.67° C | 92% | 1012.5 hPa | 0 mm | - | 0 W/m² | - |
| 1777948305 | 6.67° C | 92% | 1012.5 hPa | 0 mm | - | 0 W/m² | - |
| 1777948005 | 6.67° C | 91% | 1012.5 hPa | 0 mm | - | 0 W/m² | - |
| 1777947705 | 6.67° C | 90% | 1012.5 hPa | 0 mm | - | 0 W/m² | - |
| 1777947405 | 7.22° C | 92% | 1012.5 hPa | 0 mm | - | 0 W/m² | - |
| 1777947105 | 6.67° C | 92% | 1012.5 hPa | 0 mm | - | 0 W/m² | - |
* Rain latest hour (hover to see other rain measurements)
** Current wind speed in m/s (hover to see current wind gust speed)